WAGER BAY, Nunavut

4:57 AM MST on February 25, 2017 (GMT -0700)
Wager Bay

Weather History for CXWB - September, 2012

Change the Weather History Date:

Saturday, September 29, 2012

  Actual Average Record
Temperature  
Mean Temperature 36 °F -  
Max Temperature 44 °F - - ()
Min Temperature 28 °F - - ()
Degree Days  
Heating Degree Days 29    
Moisture  
Dew Point 34 °F    
Average Humidity 85    
Maximum Humidity 100    
Minimum Humidity 66    
Precipitation  
Precipitation 0.00 in - - ()
Sea Level Pressure  
Sea Level Pressure 29.55 in    
Wind  
Wind Speed 9 mph ()    
Max Wind Speed 30 mph    
Max Gust Speed 29 mph    
T = Trace of Precipitation, MM = Missing Value Source: Averaged Metar Reports

Daily Weather History Graph

Daily Weather History Graph

Search for Another Location

Airport or City:

Trip Planner

Search our weather history database for the weather conditions in past years. The results will help you decide how hot, cold, wet, or windy it might be!

Date:

Astronomy

Sep. 29, 2012 Rise Set
Actual Time 6:13 AM MDT 5:39 PM MDT
Civil Twilight 5:22 AM MDT 6:30 PM MDT
Nautical Twilight 4:21 AM MDT 7:31 PM MDT
Astronomical Twilight 3:12 AM MDT 8:38 PM MDT
Moon 4:52 PM MDT (9/29) 5:54 AM MDT (9/29)
Length of Visible Light 13h 08m
Length of Day
11h 26m
Full, 100% of the Moon is Illuminated
Sep 29
Full
Sep 29
Full
Oct 8
Last Quarter
Oct 15
New
Oct 21
First Quarter

Hourly Weather History & Observations

Time (MDT) Temp. Windchill Dew Point Humidity Pressure Visibility Wind Dir Wind Speed Gust Speed Precip Events Conditions
12:00 AM 33 °F - 32 °F 93% 29.48 in - SE 3.5 mph - -  
12:00 AM 31.3 °F 27.9 °F 31.8 °F 100% 29.48 in - SE 3.5 mph - N/A   Unknown
1:00 AM 33.3 °F 30.2 °F 31.6 °F 94% 29.47 in - ESE 3.5 mph - N/A   Unknown
2:00 AM 31.3 °F 27.9 °F 32.0 °F 100% 29.47 in - ENE 3.5 mph - N/A   Unknown
3:00 AM 32.9 °F - 31.8 °F 96% 29.47 in - East 2.3 mph - N/A   Unknown
4:00 AM 32.9 °F 29.8 °F 31.8 °F 96% 29.46 in - East 3.5 mph - N/A   Unknown
5:00 AM 30.7 °F - 30.0 °F 97% 29.47 in - NNE 1.2 mph - N/A   Unknown
6:00 AM 31 °F - 30 °F 96% 29.48 in - NNW 3.5 mph - -  
6:00 AM 31.1 °F 27.7 °F 30.4 °F 97% 29.48 in - NNW 3.5 mph - N/A   Unknown
7:00 AM 37.9 °F 30.9 °F 31.6 °F 78% 29.49 in - NW 10.4 mph - N/A   Unknown
8:00 AM 39.9 °F 31.1 °F 35.4 °F 84% 29.49 in - WNW 17.3 mph - N/A   Unknown
9:00 AM 42.1 °F 33.6 °F 37.4 °F 83% 29.50 in - WNW 18.4 mph - N/A   Unknown
10:00 AM 42.8 °F 33.8 °F 37.4 °F 81% 29.51 in - WNW 21.9 mph 28.8 mph N/A   Unknown
11:00 AM 41.7 °F 32.6 °F 36.3 °F 81% 29.52 in - WNW 20.7 mph 27.6 mph N/A   Unknown
12:00 PM 44 °F - 36 °F 66% 29.55 in - NW 23.0 mph - -  
12:00 PM 43.5 °F 34.5 °F 36.5 °F 76% 29.55 in - NW 23.0 mph 28.8 mph N/A   Unknown
1:00 PM 41.9 °F 31.9 °F 36.0 °F 79% 29.55 in - WNW 25.3 mph - N/A   Unknown
2:00 PM 42.1 °F 31.3 °F 35.6 °F 78% 29.56 in - WNW 29.9 mph - N/A   Unknown
3:00 PM 41.4 °F 31.4 °F 36.3 °F 82% 29.59 in - WNW 24.2 mph - N/A   Unknown
4:00 PM 40.6 °F 31.7 °F 35.4 °F 82% 29.61 in - WNW 18.4 mph - N/A   Unknown
5:00 PM 39.4 °F 31.8 °F 35.1 °F 84% 29.63 in - NW 12.7 mph 18.4 mph N/A   Unknown
6:00 PM 41 °F - 35 °F 73% 29.66 in - East 6.9 mph - -  
6:00 PM 40.8 °F 36.2 °F 35.2 °F 80% 29.66 in - East 6.9 mph - N/A   Unknown
7:00 PM 41.7 °F 38.8 °F 34.5 °F 76% 29.67 in - NNW 4.6 mph - N/A   Unknown
8:00 PM 39.0 °F 32.8 °F 34.0 °F 82% - - West 9.2 mph - N/A   Unknown
9:00 PM 39.2 °F 31.6 °F 34.2 °F 82% 29.68 in - NW 12.7 mph - N/A   Unknown
10:00 PM 38.7 °F 32.9 °F 34.3 °F 84% 29.70 in - NW 8.1 mph - N/A   Unknown
11:00 PM 36.7 °F 28.4 °F 33.3 °F 87% 29.73 in - WNW 12.7 mph - N/A   Unknown